[[{"header":{"parameterUnit":"m.s-1","parameterCategory":1,"la1":30.2991,"la2":30.254,"lo1":-89.0895,"lo2":-89.0444,"dy":0.0017,"dx":0.0017,"nx":28,"ny":28,"refTime":"2023-10-23T03:00:00:Z","depth":0,"parameterNumber":2,"parameterNumberName":"U-component_of_WINDS"},"data":[0,0,0,0,0,0,0,0,0,0,0,0,0,0,0,0,0,0,0,0,0,0,0,0,0,0,0,0,0,0,0,0,0,0,0,0,0,0,0,0,0,0,0,0,0,0,0,0,0,0,0,0,0,0,0,0,0,0,-5.5481,-5.5482,0,-5.5588,-5.5589,-5.559,-5.5523,-5.552,-5.5517,-5.5514,-5.5633,-5.5639,-5.5645,0,0,0,0,0,0,0,0,0,0,0,0,0,-5.5228,-5.5233,-5.5481,-5.5482,-5.5484,-5.5587,-5.5589,-5.559,-5.5524,-5.552,-5.5516,-5.5512,-5.5631,-5.5638,-5.5645,0,0,0,0,0,0,0,0,0,0,0,0,0,-5.5337,-5.5234,-5.5481,-5.5463,-5.5462,-5.5587,-5.5589,-5.5591,-5.5525,-5.552,-5.5515,-5.5511,-5.5628,-5.5637,-5.5646,-5.5798,0,0,-5.5674,-5.5678,0,0,0,0,0,0,0,0,-5.5331,-5.5346,-5.5464,-5.5464,-5.5464,-5.5537,-5.5543,-5.5661,-5.5526,-5.5501,-5.5514,-5.5508,-5.5605,-5.5616,-5.5647,-5.5804,-5.5809,-5.5675,-5.5681,-5.5685,-5.5687,0,0,0,0,0,0,0,-5.5323,-5.5341,-5.5523,-5.5466,-5.5466,-5.5452,-5.5462,-5.5565,-5.5579,-5.5503,-5.5498,-5.5511,-5.5604,-5.5638,-5.5649,-5.581,-5.5675,-5.5683,-5.5689,-5.5692,-5.6097,-5.6102,0,0,0,0,0,0,-5.5316,-5.5335,-5.552,-5.5527,-5.5384,-5.546,-5.5472,-5.5518,-5.5577,-5.5582,-5.5515,-5.5508,-5.5625,-5.5638,-5.5653,-5.5834,-5.5684,-5.5693,-5.5698,-5.6092,-5.6099,-5.6104,0,0,0,0,0,0,-5.5311,-5.5333,-5.5516,-5.543,-5.5452,-5.547,-5.5523,-5.5523,-5.5556,-5.5587,-5.559,-5.5547,-5.5622,-5.564,-5.5762,-5.5837,-5.5697,-5.5706,-5.6086,-5.6094,-5.6101,-5.6198,0,0,0,0,0,0,-5.5304,-5.5331,-5.5387,-5.5431,-5.5457,-5.562,-5.5527,-5.5529,-5.5571,-5.5563,-5.5617,-5.5621,-5.5619,-5.5748,-5.5771,-5.5847,-5.5713,-5.6079,-5.609,-5.6099,-5.6188,-5.6208,-5.6225,0,0,0,0,0,-5.5295,-5.5413,-5.539,-5.5413,-5.5526,-5.5625,-5.5639,-5.5632,-5.5578,-5.5635,-5.5655,-5.562,-5.5825,-5.5761,-5.5786,-5.5867,-5.6074,-5.6087,-5.6098,-5.618,-5.6204,-5.6225,0,0,0,0,0,0,-5.538,-5.5418,-5.5394,-5.5529,-5.5574,-5.5613,-5.5685,-5.5658,-5.5722,-5.5711,-5.5702,-5.5715,-5.5842,-5.5867,-5.5794,-5.6017,-5.5942,-5.5959,-5.5995,-5.6019,-5.6037,-5.6029,-5.572,0,0,0,0,0,-5.5414,-5.5488,-5.5518,-5.5634,-5.5658,-5.5668,-5.5711,-5.57,-5.5748,-5.5767,-5.5796,-5.5846,-5.5921,-5.5972,-5.6043,-5.6192,-5.6203,-5.6259,-5.6278,-5.6293,-5.6308,-5.6388,-5.6414,-5.6143,-5.6143,-5.6143,0,0,-5.5487,-5.5516,-5.5564,-5.5652,-5.5686,-5.5765,-5.5684,-5.5772,-5.5831,-5.5782,-5.5897,-5.592,-5.5975,-5.611,-5.6172,-5.6135,-5.6385,-5.6308,-5.632,-5.6327,-5.6403,-5.6429,-5.6452,-5.6151,-5.615,-5.6148,0,0,-5.5658,-5.5687,-5.5786,-5.5821,-5.5872,-5.5877,-5.5902,-5.5945,-5.5957,-5.6072,-5.6037,-5.6109,-5.624,-5.628,-5.6318,-5.6504,-5.6474,-5.6528,-5.6625,-5.6704,-5.6725,-5.6744,-5.681,-5.6834,-5.6543,-5.6543,-5.6543,0,-5.5742,-5.5856,-5.5842,-5.5931,-5.5971,-5.5927,-5.6029,-5.6065,-5.6138,-5.6168,-5.6125,-5.6287,-5.6322,-5.6466,-5.6511,-5.6543,-5.6572,-5.6521,-5.6722,-5.6741,-5.6759,-5.6822,-5.6847,-5.6549,-5.6549,-5.6548,-5.6547,0,-5.5956,-5.6037,-5.6112,-5.6179,-5.6228,-5.6324,-5.6326,-5.6378,-5.6364,-5.6375,-5.6494,-5.6533,-5.6611,-5.6645,-5.6634,-5.6788,-5.6764,-5.6722,-5.6647,-5.6791,-5.685,-5.6874,-5.6558,-5.6556,-5.6554,-5.6553,0,0,-5.6185,-5.6242,-5.6269,-5.6299,-5.6352,-5.6415,-5.6509,-5.6582,-5.6627,-5.668,-5.6759,-5.687,-5.6831,-5.6875,-5.6868,-5.6937,-5.7081,-5.6887,-5.6888,-5.6921,-5.7254,-5.7284,-5.7312,-5.7062,-5.7067,-5.707,-5.7249,0,-5.6358,-5.6518,-5.6508,-5.666,-5.6735,-5.6694,-5.6776,-5.6819,-5.6832,-5.6899,-5.6915,-5.6994,-5.6937,-5.6962,-5.7029,-5.7049,-5.7148,-5.7037,-5.7138,-5.7142,-5.7124,-5.7343,-5.7376,-5.7542,-5.7272,-5.7276,-5.7279,0,-5.6582,-5.6637,-5.6796,-5.6836,-5.6867,-5.694,-5.7006,-5.7071,-5.7119,-5.7124,-5.7171,-5.7153,-5.7251,-5.7173,-5.7309,-5.7233,-5.7275,-5.7291,-5.7297,-5.7306,-5.7218,-5.7358,-5.7595,-5.762,-5.7315,-5.7312,-5.731,0,-5.6731,-5.6847,-5.6956,-5.6983,-5.7033,-5.7085,-5.7109,-5.7152,-5.7197,-5.7256,-5.7285,-5.7357,-5.7396,-5.7453,-5.7455,-5.7398,-5.7593,-5.7515,-5.7601,-5.7601,-5.7643,-5.764,-5.789,-5.7671,-5.7671,-5.767,-5.767,0,-5.6926,-5.7024,-5.7023,-5.709,-5.72,-5.7189,-5.7299,-5.7318,-5.7357,-5.7429,-5.74,-5.7469,-5.7467,-5.7539,-5.7542,-5.7654,-5.7672,-5.7681,-5.768,-5.7683,-5.7682,-5.7709,-5.7697,-5.7677,-5.7676,-5.7674,-5.7673,0,-5.7111,-5.7114,-5.723,-5.7267,-5.7279,-5.7358,-5.7391,-5.7456,-5.7466,-5.7558,-5.7579,-5.7597,-5.7679,-5.7686,-5.7783,-5.7785,-5.792,-5.7908,-5.7903,-5.79,-5.7986,-5.7977,-5.8262,-5.8298,-5.8056,-5.8058,-5.806,0,-5.7234,-5.7308,-5.7352,-5.7396,-5.7422,-5.7495,-5.7539,-5.7532,-5.758,-5.764,-5.7699,-5.7777,-5.7839,-5.7973,-5.7997,-5.8071,-5.8059,-5.8154,-5.8071,-5.8071,-5.806,-5.8055,-5.8063,-5.817,-5.8173,-5.8175,-5.8177,0,-5.7453,-5.745,-5.7513,-5.7577,-5.763,-5.7681,-5.7729,-5.7768,-5.7767,-5.7823,-5.7904,-5.7952,-5.8049,-5.8128,-5.82,-5.8228,-5.8204,-5.8203,-5.8226,-5.8229,-5.8223,-5.8227,-5.7946,-5.8196,-5.8194,-5.8193,-5.8192,-5.8191,-5.761,-5.7674,-5.7714,-5.7785,-5.782,-5.7865,-5.7927,-5.7944,-5.801,-5.8086,-5.8079,-5.817,-5.8217,-5.8311,-5.8344,-5.8417,-5.8386,-5.8421,-5.8429,-5.8438,-5.8446,-5.8212,-5.8431,-5.843,-5.843,-5.8429,-5.8429,0,-5.7826,-5.785,-5.7915,-5.7981,-5.8037,-5.8005,-5.8057,-5.8107,-5.8186,-5.823,-5.8291,-5.8386,-5.8462,-5.8491,-5.8566,-5.8619,-5.8609,-5.8639,-5.8635,-5.8641,-5.847,-5.8441,-5.8645,-5.8645,-5.8645,-5.8645,-5.8645,-5.8645,-5.7945,-5.805,-5.8053,-5.8176,-5.8199,-5.8285,-5.8317,-5.8359,-5.8394,-5.8499,-5.8561,-5.8578,-5.8617,-5.8694,-5.8764,-5.8771,-5.88,-5.8834,-5.8836,-5.8675,-5.8654,-5.8633,-5.8606,-5.8841,-5.8841,-5.9001,-5.9003,-5.9004]},{"header":{"parameterUnit":"m.s-1","parameterCategory":1,"la1":30.2991,"la2":30.254,"lo1":-89.0895,"lo2":-89.0444,"dy":0.0017,"dx":0.0017,"nx":28,"ny":28,"refTime":"2023-10-23T03:00:00:Z","depth":0,"parameterNumber":3,"parameterNumberName":"V-component_of_WINDS"},"data":[0,0,0,0,0,0,0,0,0,0,0,0,0,0,0,0,0,0,0,0,0,0,0,0,0,0,0,0,0,0,0,0,0,0,0,0,0,0,0,0,0,0,0,0,0,0,0,0,0,0,0,0,0,0,0,0,0,0,0.5074,0.5074,0,0.5104,0.5104,0.5104,0.5108,0.5108,0.5108,0.5107,0.5142,0.5143,0.5144,0,0,0,0,0,0,0,0,0,0,0,0,0,0.5025,0.5026,0.5074,0.5074,0.5074,0.5104,0.5104,0.5105,0.5108,0.5108,0.5108,0.5107,0.5141,0.5143,0.5144,0,0,0,0,0,0,0,0,0,0,0,0,0,0.505,0.5026,0.5074,0.508,0.5081,0.5104,0.5104,0.5105,0.5108,0.5108,0.5107,0.5107,0.5141,0.5143,0.5144,0.5165,0,0,0.515,0.5151,0,0,0,0,0,0,0,0,0.5048,0.5051,0.5078,0.5079,0.508,0.5102,0.5099,0.5125,0.5108,0.5098,0.5107,0.5107,0.5129,0.5132,0.5139,0.5166,0.5168,0.515,0.5151,0.5152,0.5152,0,0,0,0,0,0,0,0.5046,0.505,0.5086,0.5079,0.508,0.5083,0.5086,0.5104,0.5116,0.5099,0.5099,0.5102,0.513,0.5137,0.5139,0.5168,0.515,0.5152,0.5153,0.5153,0.5217,0.5218,0,0,0,0,0,0,0.5043,0.5049,0.5085,0.5087,0.5063,0.5084,0.5087,0.5095,0.5116,0.5118,0.5103,0.5103,0.5134,0.5137,0.5141,0.5168,0.5152,0.5154,0.5155,0.5217,0.5218,0.5218,0,0,0,0,0,0,0.5042,0.5046,0.5084,0.5068,0.5073,0.5085,0.5094,0.5096,0.5103,0.5119,0.5121,0.5108,0.5134,0.5138,0.5159,0.5169,0.5154,0.5156,0.5216,0.5217,0.5218,0.5221,0,0,0,0,0,0,0.504,0.5046,0.5052,0.5068,0.5073,0.51,0.5095,0.5097,0.5106,0.5106,0.5124,0.5127,0.5134,0.5156,0.5161,0.5171,0.5158,0.5215,0.5217,0.5218,0.522,0.5222,0.5223,0,0,0,0,0,0.5039,0.5052,0.5052,0.5057,0.5082,0.51,0.5104,0.5111,0.5107,0.5115,0.5125,0.5126,0.5167,0.5158,0.5164,0.5175,0.5215,0.5216,0.5218,0.5219,0.5221,0.5223,0,0,0,0,0,0,0.5038,0.5054,0.5055,0.5073,0.5085,0.5101,0.5111,0.5112,0.5127,0.5126,0.5136,0.514,0.5161,0.517,0.516,0.5197,0.5191,0.5193,0.519,0.5193,0.5194,0.5192,0.5159,0,0,0,0,0,0.5039,0.5052,0.5066,0.5081,0.5087,0.5098,0.5106,0.5111,0.5124,0.513,0.5141,0.5155,0.5172,0.5182,0.5198,0.5221,0.5227,0.5231,0.5233,0.5234,0.5237,0.5253,0.5256,0.5223,0.5223,0.5223,0,0,0.5044,0.5054,0.5061,0.5081,0.5091,0.5106,0.5102,0.5117,0.5129,0.5132,0.5153,0.5162,0.5179,0.5202,0.5212,0.521,0.5247,0.5236,0.5237,0.5239,0.5255,0.5258,0.5261,0.5224,0.5224,0.5223,0,0,0.5059,0.5067,0.5081,0.5092,0.5107,0.5114,0.5118,0.5133,0.514,0.516,0.5164,0.5179,0.5206,0.5219,0.5229,0.5251,0.5254,0.5256,0.5266,0.5281,0.5284,0.5286,0.5297,0.53,0.5258,0.5258,0.5258,0,0.5062,0.5083,0.5089,0.5104,0.5114,0.5117,0.5134,0.5144,0.5164,0.5171,0.5168,0.5204,0.5215,0.5242,0.5248,0.5255,0.5262,0.5255,0.5282,0.5285,0.5287,0.5298,0.5302,0.5259,0.5259,0.5259,0.5259,0,0.5088,0.5103,0.5113,0.5131,0.5142,0.5158,0.5168,0.5179,0.5183,0.5191,0.5215,0.5228,0.5248,0.5255,0.5259,0.5284,0.5282,0.528,0.5275,0.5291,0.5301,0.5305,0.5259,0.5259,0.5259,0.5259,0,0,0.5103,0.5125,0.5129,0.5139,0.5157,0.5169,0.5186,0.5205,0.5215,0.5229,0.5246,0.527,0.5269,0.5281,0.5286,0.53,0.532,0.5297,0.5298,0.5303,0.5352,0.5355,0.5359,0.5322,0.5322,0.5323,0.5352,0,0.5122,0.5151,0.5157,0.5183,0.5199,0.5203,0.5218,0.5232,0.5241,0.5257,0.5268,0.5285,0.5282,0.5289,0.5302,0.5315,0.5331,0.5313,0.534,0.5341,0.5337,0.5364,0.5366,0.5392,0.5355,0.5356,0.5356,0,0.5147,0.5161,0.5189,0.5207,0.5214,0.5227,0.5246,0.526,0.5277,0.5283,0.5297,0.5302,0.5323,0.5316,0.5346,0.5334,0.5346,0.5354,0.5355,0.5359,0.5351,0.5371,0.54,0.5405,0.5362,0.5362,0.5361,0,0.5158,0.5184,0.5205,0.5212,0.5233,0.5243,0.5253,0.5269,0.5281,0.5299,0.5307,0.5327,0.5338,0.5354,0.5366,0.5359,0.5397,0.5389,0.5405,0.5405,0.5414,0.5413,0.5447,0.5418,0.5418,0.5418,0.5417,0,0.5179,0.5196,0.521,0.5223,0.5243,0.5252,0.5273,0.5283,0.5298,0.5314,0.5319,0.5335,0.5349,0.5367,0.5376,0.5402,0.5407,0.5414,0.5417,0.5415,0.5414,0.5424,0.5423,0.5419,0.5418,0.5418,0.5418,0,0.5194,0.5204,0.5227,0.5245,0.5251,0.5265,0.5282,0.5296,0.5306,0.5327,0.5333,0.5349,0.5371,0.5384,0.5412,0.5419,0.5448,0.5449,0.5442,0.5444,0.546,0.5459,0.5503,0.551,0.5473,0.5474,0.5474,0,0.5208,0.5221,0.5241,0.5252,0.5262,0.5279,0.5292,0.5302,0.5315,0.5337,0.5349,0.5372,0.539,0.5427,0.5442,0.5465,0.5468,0.5482,0.5471,0.547,0.5471,0.5471,0.5474,0.5484,0.5484,0.5484,0.5485,0,0.5231,0.5236,0.5252,0.5272,0.5286,0.5302,0.5318,0.5327,0.5341,0.5355,0.5378,0.5393,0.5422,0.5446,0.547,0.5483,0.5488,0.5488,0.5493,0.5492,0.5489,0.5494,0.545,0.5487,0.5487,0.5486,0.5486,0.5486,0.5248,0.5261,0.5278,0.5297,0.531,0.5326,0.534,0.5352,0.5371,0.5395,0.5401,0.5426,0.5446,0.5479,0.5492,0.5514,0.5511,0.5518,0.552,0.5523,0.5525,0.5484,0.5518,0.5518,0.5518,0.5518,0.5518,0,0.5273,0.5285,0.5303,0.5325,0.5341,0.5342,0.5361,0.5375,0.5396,0.5414,0.5433,0.5461,0.5485,0.5503,0.5528,0.5542,0.5545,0.5548,0.5548,0.5552,0.5524,0.5518,0.5546,0.5546,0.5546,0.5546,0.5546,0.5546,0.5289,0.5312,0.532,0.5351,0.5363,0.5386,0.5397,0.5413,0.5427,0.5458,0.5478,0.5489,0.5508,0.5535,0.5558,0.5563,0.5573,0.5577,0.5583,0.5556,0.5553,0.5551,0.5545,0.5578,0.5579,0.561,0.561,0.561]}]]